sat.trackr.live / text

‹ back to catalog

ANIK G1

NORAD 39127 · 2013-014A

PAYLOAD ACTIVE UNKNOWN

§ Identity

Operator
Country
CA
Launch date
2013-04-15
Launch site
TYMSC
Launch vehicle
Mass (kg)
RCS (m²)
212.12

Purposes: comms

External: N2YO · Heavens-Above · Gunter

§ Orbital elements

Epoch: 2026-05-25T03:14:03.244128Z

Period
1,436.10 min
Inclination
0.0169°
Eccentricity
0.0001879
Mean motion
1.00271705 rev/d
Perigee alt
35,778.7 km
Apogee alt
35,794.5 km
Semi-major
42,164.8 km
B*
0.0000e+0
RAAN
339.0547°
Arg perigee
77.7599°
Mean anomaly
127.1076°
Rev number
4,802

§ Raw data

ANIK G11 39127U 13014A   26145.13475977 -.00000076  00000+0  00000+0 0  99942 39127   0.0169 339.0547 0001879  77.7599 127.1076  1.00271705 48021

JSON: /api/v1/satellites/39127 · /tle

For live sub-satellite position, see the globe view (requires WebGL).

§ Visibility from observer

Set your observer location to see the next 7 days of passes ≥ 10°. The values pass through the URL so the page stays shareable.

No JS? Fill the form by hand. The geolocation button needs JavaScript.